AirNav   Air Wisconsin pilot careers
 
 1001 users online  

XA31 Lewis Ranch Airport
Leakey, Texas, USA

GOING TO LEAKEY?


FAA INFORMATION EFFECTIVE 26 APRIL 2018

Location

FAA Identifier: XA31
Lat/Long: 29-49-00.7920N / 099-47-16.2210W
29-49.013200N / 099-47.270350W
29.8168867 / -99.7878392
(estimated)
Elevation: 1730 ft. / 527 m (estimated)
Variation: 08E (1985)
From city: 5 miles N of LEAKEY, TX
Time zone: UTC -5 (UTC -6 during Standard Time)
Zip code: 78873

Airport Operations

Airport use: Private use. Permission required prior to landing
Activation date: 05/1949
Control tower: no
ARTCC: HOUSTON CENTER
FSS: SAN ANGELO FLIGHT SERVICE STATION
Attendance: UNATNDD
Wind indicator: yes
Segmented circle: yes
SEGMENTED CIRCLE - ROCKS PAINTED WHITE.

Nearby radio navigation aids

VOR radial/distance  VOR name  Freq  Var
RSGr104/29.2ROCKSPRINGS VORTAC111.2010E
CSIr250/30.5CENTER POINT VORTAC117.5008E

 
NDB name  Hdg/Dist  Freq  Var  ID
UVALDE348/38.528107EUVA ..- ...- .-

Airport Services

Parking: tiedowns
Airframe service: NONE
Powerplant service: NONE

Runway Information

Runway 11/29

Dimensions: 3150 x 200 ft. / 960 x 61 m
RY 11/29 ONLY CENTER 70 FT REGULARLY MAINTAINED.
Surface: turf, in fair condition
RY 11/29 NW 300 FT OF RY ROUGH.
Runway edge markings: 11/29 EDGES DEFINED WITH WHITE HALF BARRELS.
RUNWAY 11  RUNWAY 29
Traffic pattern: leftleft
Obstructions: 12 ft. berm, 80 ft. from runway, 6:1 slope to clear15 ft. road, 120 ft. right of centerline

Airport Ownership and Management from official FAA records

Ownership: Privately-owned
Owner: EUNICE D LEWIS
119 LARAMIE DRIVE
SAN ANTONIO, TX 78209
Phone 210-828-0402
Manager: HARDY C. LEWIS
P.O.BOX 1399
LEAKEY, TX 78873
Phone 830-232-5331
USE THIS TELEPHONE NUMBER FOR EMERGENCY SERVICE.

Airport Operational Statistics

Aircraft operations: 25/year *
100% transient general aviation
* for 12-month period ending 14 July 2003

Additional Remarks

ARPT SURROUNDED BY 500' HILLS 1/2 TO 3/4 MILE IN EACH DIRECTION.

Instrument Procedures

There are no published instrument procedures at XA31.

Some nearby airports with instrument procedures:

KECU - Edwards County Airport (22 nm W)
KUVA - Garner Field Airport (36 nm S)
KERV - Kerrville Municipal Airport/Louis Schreiner Field (38 nm E)
KJCT - Kimble County Airport (42 nm N)
KHDO - South Texas Regional Airport at Hondo (42 nm SE)
 
Loc | Ops | Rwys | IFR | FBO | Links
Com | Nav | Svcs | Stats | Notes

AirNav Hotels Sweepstakes
 
Area around XA31 (Lewis Ranch Airport)
 
Road maps at: MapQuest Bing Google
 
Aerial photo
No photo
 
Sectional chart

 
Airport distance calculator
Flying to Lewis Ranch Airport? Find the distance to fly.

From to XA31

Sunrise and sunset
Times for 20-May-2018
 Local
(UTC-5)
 Zulu
(UTC)
Morning civil twilight06:1811:18
Sunrise06:4411:44
Sunset20:2701:27
Evening civil twilight20:5401:54

Current date and time
Zulu (UTC)  20-May-2018 18:05:36
Local (UTC-5)  20-May-2018 13:05:36
 
METAR
KECU 
22nm W 
201755Z AUTO 05016G22KT 9SM VCTS SCT024 BKN028 OVC041 17/15 A3011 RMK AO2 LTG DSNT ALQDS P0002
KUVA 
36nm S 
201755Z AUTO 10010KT 10SM BKN029 BKN035 BKN047 27/21 A2998 RMK AO2 LTG DSNT W AND NW T02740211 10285 20233
KERV 
38nm E 
201755Z AUTO 03016G24KT 10SM -RA SCT025 BKN040 OVC065 21/17 A3008 RMK AO2 LTG DSNT E AND W P0001 60001 T02050170 10258 20203
KJCT 
41nm N 
201751Z AUTO 09008KT 10SM OVC048 20/18 A3011 RMK AO2 LTG DSNT N AND NW RAE19 SLP166 P0000 60006 T02000183 10217 20178 50002
KHDO 
42nm SE 
201751Z AUTO 10009KT 10SM SCT035 SCT042 BKN050 29/22 A2999 RMK AO2 LTG DSNT NE SLP139 T02940217 10306 20244 58004 $
TAF
KJCT 
41nm N 
201721Z 2018/2118 05011KT P6SM VCTS OVC040CB FM202200 13011KT P6SM OVC100 FM210700 12003KT P6SM OVC015 FM210800 12003KT 6SM BR OVC007 FM211400 13006KT P6SM OVC015
NOTAMs
Click for the latest NOTAMs
NOTAMs are issued by the DoD/FAA and will open in a separate window not controlled by AirNav.

 

 
 

Would you like to see your business listed on this page?

 If your business provides an interesting product or service to pilots, flight crews, aircraft, or users of the Lewis Ranch Airport, you should consider listing it here.  To start the listing process, click on the button below
 
Add a business
 

Other Pages about Lewis Ranch Airport

Update a link
 
Copyright © AirNav, LLC. All rights reserved. Privacy Policy  Contact